Date,TemperatureHighF,TemperatureAvgF,TemperatureLowF,DewpointHighF,DewpointAvgF,DewpointLowF,HumidityHigh,HumidityAvg,HumidityLow,PressureMaxIn,PressureMinIn,WindSpeedMaxMPH,WindSpeedAvgMPH,GustSpeedMaxMPH,PrecipitationSumIn
2013-5-1,79,67,54,63,58,53,97,76,46,0.00,40.00,6,1,11,0.00
2013-5-2,77,66,53,60,56,52,96,74,49,0.00,40.00,6,0,15,0.00
2013-5-3,74,64,55,57,53,46,94,70,37,0.00,40.00,11,2,26,0.00
2013-5-4,65,58,53,54,51,46,97,81,55,0.00,40.00,7,1,21,0.00
2013-5-5,59,53,48,54,50,47,97,92,77,0.00,40.00,5,2,20,0.00
2013-5-6,60,52,46,50,48,45,96,86,67,0.00,40.00,10,2,15,9.84
2013-5-7,75,56,43,56,49,42,98,80,43,0.00,40.00,2,0,12,9.84
2013-5-8,76,62,52,59,55,51,98,80,47,0.00,40.00,6,1,14,0.00
2013-5-9,81,64,51,62,56,50,98,79,42,0.00,40.00,5,1,12,0.00
2013-5-10,73,65,54,61,55,-100,98,76,57,0.00,40.00,11,3,21,0.00
2013-5-11,78,67,57,66,58,50,97,75,52,0.00,40.00,8,2,16,0.00
2013-5-12,68,58,44,53,36,-100,97,52,23,0.00,40.00,8,3,17,0.00
2013-5-13,70,52,35,42,36,31,96,64,24,0.00,40.00,7,2,16,0.54
2013-5-14,80,58,38,56,45,37,96,68,37,0.00,40.00,13,4,24,0.35
2013-5-15,87,72,59,60,56,46,83,61,24,0.00,40.00,9,3,15,0.00
2013-5-16,84,58,53,64,32,-100,97,75,41,0.00,40.00,9,2,15,0.00
2013-5-17,82,67,58,70,52,-100,97,83,56,0.00,40.00,4,0,10,0.01
2013-5-18,76,69,64,68,66,63,98,89,74,0.00,40.00,10,3,16,1.05
2013-5-19,71,67,60,68,65,59,98,95,90,0.00,40.00,7,2,19,2.23
2013-5-20,84,68,57,70,62,56,99,86,56,0.00,40.00,5,1,11,0.02
2013-5-21,87,71,60,71,65,59,98,85,56,0.00,40.00,10,3,26,0.01
2013-5-22,84,71,62,69,65,61,98,84,55,0.00,40.00,8,2,20,0.04
2013-5-23,84,70,58,67,60,54,98,74,39,0.00,40.00,7,3,19,0.36
2013-5-24,74,64,52,58,47,39,96,59,29,0.00,40.00,9,4,20,0.01
2013-5-25,81,61,43,56,46,41,96,65,27,0.00,40.00,5,1,11,0.00
2013-5-26,82,64,50,58,52,49,97,69,33,0.00,40.00,6,1,13,0.00
2013-5-27,85,68,52,63,56,51,97,71,37,0.00,40.00,9,2,19,0.00
2013-5-28,87,72,59,62,60,57,97,70,36,0.00,40.00,11,3,18,0.00
2013-5-29,88,72,57,64,61,56,97,71,44,0.00,40.00,8,3,14,0.00
2013-5-30,86,73,59,67,63,58,97,73,52,0.00,40.00,9,2,16,0.00
2013-5-31,86,74,62,66,64,61,96,71,47,0.00,40.00,10,4,20,0.00